Location: Bakov nad Jizerou
(50.4784°N, 14.9394°E)
Time: 17:04:00
(UTC+00:00)

Cosmos 2322 - Pass Details

Date: 31 October 2021
Orbit: 841 x 854 km, 71.0° (Epoch: 04 December)

Event Time Altitude Azimuth Distance (km) Brightness Sun altitude
Rises 20:44:16 0° 291° (WNW) 3,427 7.5 -46.6°
Reaches altitude 10° 20:48:56 10° 325° (NW) 2,492 6.7 -47.1°
Enters shadow 20:49:17 10° 329° (NNW) 2,459 6.6 -47.1°
